Skip Page Navigation
NASA JPL Caltech
NASA Logo - Jet Propulsion Laboratory + View the NASA Portal
+ Center for Near-Earth Object Studies
JPL Home Earth Solar System Stars & Galaxies Technology
JPL Solar System Dynamics
BODIES ORBITS EPHEMERIDES TOOLS PHYSICAL DATA DISCOVERY FAQ SITE MAP
JPL Small-Body Database Browser
Search: [ help ]  
376927 (2002 CM67)
Classification: Main-belt Asteroid          SPK-ID: 2376927
Ephemeris | Orbit Diagram | Orbital Elements | Mission Design | Physical Parameters | Discovery Circumstances | Close-Approach Data ]

[ show orbit diagram ]
Orbital Elements at Epoch 2459000.5 (2020-May-31.0) TDB
Reference: JPL 17 (heliocentric ecliptic J2000)
 Element Value Uncertainty (1-sigma)   Units 
e .0514968565266145 8.9732e-08  
a 2.598947132140341 3.4721e-08 au
q 2.465109524556254 2.4929e-07 au
i 10.20453806940953 6.2479e-06 deg
node 120.7097088911955 4.5416e-05 deg
peri 282.2691854445821 9.3297e-05 deg
M 206.7326221102197 8.1773e-05 deg
tp 2459652.041106946471
(2022-Mar-13.54110695)
0.00035286 TDB
period 1530.363484585779
4.19
3.0668e-05
8.396e-08
d
yr
n .2352382317181597 4.7141e-09 deg/d
Q 2.732784739724428 3.6509e-08 au
  Orbit Determination Parameters
   # obs. used (total)      189  
   data-arc span      6680 days (18.29 yr)  
   first obs. used      2002-01-13  
   last obs. used      2020-04-28  
   planetary ephem.      DE431  
   SB-pert. ephem.      SB431-N16  
   condition code      0  
   norm. resid. RMS      .61508  
   source      ORB  
   producer      Otto Matic  
   solution date      2020-May-22 00:19:15  

Additional Information
 Earth MOID = 1.49897 au 
 Jupiter MOID = 2.47348 au 
 T_jup = 3.391 
[ show covariance matrix ]

Ephemeris | Orbit Diagram | Orbital Elements | Mission Design | Physical Parameters | Discovery Circumstances | Close-Approach Data ]

Physical Parameter Table
Parameter Symbol Value Units Sigma Reference Notes
absolute magnitude H 16.4   n/a MPO434332  

376927 (2002 CM67)          Discovered 2002-Jan-13 by LINEAR at Socorro
Reference: Last Updated: 2013-11-20

[ show close-approach data ]
Alternate Designations
 2002 CM67 = 2011 GJ61 
Ephemeris | Orbit Diagram | Orbital Elements | Mission Design | Physical Parameters | Discovery Circumstances | Close-Approach Data ]
ABOUT SSD CREDITS/AWARDS PRIVACY/COPYRIGHT GLOSSARY LINKS
FirstGov 2020-Aug-15 14:52 UT
(server date/time)  
NASA Home Page
Site Manager:   Ryan S. Park
Webmaster  Alan B. Chamberlin